User: anonymous   Login
Location: Libas
(9.8833°N, 125.9833°E)
Time: 10:44:52
(UTC+00:00)
Language:

Cosmos 1634 Rocket - Orbit

View from above orbital plane
View from above orbital plane
View from above satellite
View from above satellite

Ground track
Ground track

The orbit data is extracted from the following two-line orbital elements,

1 15598U 85022B   21022.86558994  .00000152  00000-0  13968-3 0  9994
2 15598  82.9358 209.1399 0022731  32.3301  80.7729 13.76586593801235
Epoch (UTC): 22 January 2021 20:46:26
Eccentricity: 0.0022731
inclination: 82.9358°
perigee height: 959 km
apogee height: 993 km
right ascension of ascending node: 209.1399°
argument of perigee: 32.3301°
revolutions per day: 13.76586593
mean anomaly at epoch: 80.7729°
orbit number at epoch: 80123

The dashed part of the orbit path shows where the satellite is in the earth's shadow,  

DLR